User: anonymous   Login
Location: Unspecified
(0.0000°N, 0.0000°E)
Time: 00:56:18
(UTC+00:00)
Language:

WGS F4 (USA 233) - Orbit

View from above orbital plane
View from above orbital plane
View from above satellite
View from above satellite

Ground track
Ground track

The orbit data is extracted from the following two-line orbital elements,

1 38070U 12003A   23081.23868816 -.00000231  00000-0  00000+0 0  9996
2 38070   0.0075 187.5805 0000616  59.6186 106.5959  1.00272612 40857
Epoch (UTC): 22 March 2023 05:43:42
Eccentricity: 0.0000616
inclination: 0.0075°
perigee height: 35783 km
apogee height: 35788 km
right ascension of ascending node: 187.5805°
argument of perigee: 59.6186°
revolutions per day: 1.00272612
mean anomaly at epoch: 106.5959°
orbit number at epoch: 4085

The dashed part of the orbit path shows where the satellite is in the earth's shadow,  

DLR